Location: Lane
(33.5226°N, 79.8788°W)
Time: 10:29:00
(UTC+00:00)

Altair - Pass Details

Date: 04 October 2022
Orbit: 1501 x 1682 km, 47.2° (Epoch: 30 November)

Event Time Altitude Azimuth Distance (km) Brightness Sun altitude
Rises 09:57:16 0° 243° (WSW) 4,727 - -17.2°
Reaches altitude 10° 10:00:20 10° 246° (WSW) 3,769 - -16.6°
Exits shadow 10:02:35 20° 250° (WSW) 3,093 8.5 -16.1°
Maximum altitude 10:09:54 67° 329° (NNW) 1,731 7.6 -14.6°
Drops below altitude 10° 10:19:53 10° 51° (NE) 3,913 10.5 -12.5°
Sets 10:23:08 0° 55° (NE) 4,917 11.2 -11.8°
